BARATARIA BAY NEAR GRAND ISLE 13 LA US USGS current weather conditions

sailwx.info

Wind from 011 at 12 knots

Last reported at 2019-Nov-13 11:00 UTC.
Time now 2019-Nov-13 12:55 UTC

Location: N 29°25' W 089°57'.
View on Google Maps.

See reports from other nearby stations

  
Tides and Currents Weather Stations Pressure Air Temp Water Temp Dewpoint Dewpoint Depression Visibility Wind Speed Wind Dir Waves Ship Positions
date/time (UTC)wind fromknots sea level pressurealtimeterstation pressurevisibilityair tempwater tempwave heightnotes
2019-Nov-13 11:00 011 12
2019-Nov-13 10:00 010 14
2019-Nov-13 09:00 358 16
2019-Nov-13 08:00 017 17
2019-Nov-13 07:00 009 19
2019-Nov-13 06:00 028 21
2019-Nov-13 05:00 020 20
2019-Nov-13 04:00 027 22
2019-Nov-13 03:00 359 22
2019-Nov-13 02:00 358 22
2019-Nov-13 01:00 349 24
2019-Nov-13 00:00 355 22
2019-Nov-12 23:00 356 24
2019-Nov-12 22:00 351 23
2019-Nov-12 21:00 354 22
2019-Nov-12 20:00 359 25
2019-Nov-12 19:00 007 27
2019-Nov-12 18:00 002 24
2019-Nov-12 17:00 350 28
2019-Nov-12 16:00 352 26
2019-Nov-12 15:00 352 27
2019-Nov-12 14:00 357 29
2019-Nov-12 13:00 353 32
2019-Nov-12 12:00 352 26
2019-Nov-12 11:00 349 31
2019-Nov-12 10:00 347 29
2019-Nov-12 09:00 335 33
2019-Nov-12 08:00 289 4
2019-Nov-12 07:00 238 4
2019-Nov-12 06:00 159 4
2019-Nov-12 05:00 219 6
2019-Nov-12 04:00 213 6
2019-Nov-12 03:00 153 9
2019-Nov-12 02:00 156 5
2019-Nov-12 01:00 173 5
2019-Nov-12 00:00 171 6
2019-Nov-11 23:00 154 5
2019-Nov-11 22:00 132 5
2019-Nov-11 21:00 116 6
2019-Nov-11 20:00 105 7
2019-Nov-11 19:00 112 7
2019-Nov-11 18:00 106 7
2019-Nov-11 17:00 103 8
2019-Nov-11 16:00 081 9
2019-Nov-11 15:00 069 7
2019-Nov-11 14:00 088 6
2019-Nov-11 13:00 070 8
2019-Nov-11 12:00 072 9